Starlink 31539

operational
NORAD ID: 59539 Int'l Des: 2024-074 Owner: SPXS Country: US Constellation: starlink
LEOCIRCULAR

About Starlink 31539

Description loading...

Live Position

Loading 3D Globe...

Upcoming Passes

Altitude History

Altitude vs Time

uPlot chart will show altitude changes over time

Two-Line Element Set

1 59539U 24074F 25303.50676684 -.00000932 00000-0 -24341-4 0 9997
2 59539 43.0012 358.8074 0002484 245.7379 114.3214 15.27573405 86103
Epoch: Oct 30, 2025 • Age: 24 hours

Current Status

Altitude 483.5 km
Velocity 7.63 km/s
Sub-Earth Point 18.53°N, 156.82°E
Launch Date Apr 18, 2024
Age 1.5 years
Type internet

Technical Details

Classification Payload
Mass 730.00 kg
Dry Mass 700.00 kg
Total Mass 730.00 kg
Length 0.30 m
Diameter 4.10 m
Span 29.00 m
Shape Box + pan
Manufacturer SPXS
Bus Type Starlink V2M
Phase Status In Orbit
Owner/State SPXS/US

Large Constellations

Loading constellations...